#timestamp,LO_Frequency,Hit,StdDev 
1606417215.7,286047002.4,N
1606417235.5,286047002.1,N
1606417255.3,286047000.3,N
1606417275.2,286047000.7,N
1606417295.9,286046998.2,N
1606417315.7,286047001.0,N
1606417335.6,286046999.9,N
1606417355.4,286047000.1,N
1606417375.3,286047002.3,N
1606417395.1,286047003.8,N
1606417396.0,286047003.8,N
1606417415.8,286047005.9,N
1606417435.7,286047003.1,N
1606417455.5,286047001.8,N
1606417475.3,286047001.3,N
1606417495.2,286047001.7,N
1606417515.0,286047001.5,N
1606417515.9,286047001.5,N
1606417535.8,286047001.8,N
1606417555.6,286047003.9,N
1606417575.4,286047003.9,N
1606417595.3,286047004.3,N
1606417615.1,286047003.6,N
1606417635.8,286047001.4,N
1606417655.7,286047004.4,N
1606417675.5,286047004.2,N
1606417695.4,286047005.6,Y
1606417715.2,286047004.2,P
1606417735.0,286047001.7,N
1606417735.9,286047001.7,N
1606417755.8,286046999.9,N
1606417775.6,286047000.1,N
1606417795.4,286046999.7,N
1606417815.3,286047002.1,N
1606417835.1,286047002.8,N
1606417855.9,286047002.8,N
1606417875.7,286047002.4,N
1606417895.5,286047001.1,N
1606417915.4,286047001.9,N
1606417935.2,286047001.8,N
1606417955.0,286047003.6,N
1606417955.9,286047003.6,N
1606417975.8,286047004.3,Y
1606417995.6,286046999.6,P
1606418015.5,286046999.0,N
1606418035.3,286046999.2,N
1606418055.1,286046996.5,N
1606418075.9,286046999.5,N
1606418095.7,286046997.4,N
1606418115.5,286046996.6,N
1606418135.4,286046996.9,N
1606418155.2,286046995.1,N
1606418175.1,286046997.2,N
1606418176.0,286046997.2,N
1606418195.8,286046996.7,N
1606418215.6,286046996.8,N
1606418235.5,286046995.2,N
1606418255.3,286046997.5,N
1606418275.1,286046995.6,N
1606418295.9,286046996.0,N
1606418315.7,286046994.6,Y
1606418335.6,286046996.7,P
1606418355.4,286046997.7,P
1606418375.2,286046997.6,P
1606418395.1,286046996.9,Y
1606418396.0,286046996.9,P
1606418415.8,286047000.1,N
1606418435.7,286047002.7,N
1606418455.5,286047002.4,N
1606418475.3,286046998.3,N
1606418495.2,286046996.7,N
1606418515.0,286046997.7,N
1606418515.9,286046997.7,N
1606418535.7,286046997.1,N
1606418555.6,286046997.2,N
1606418575.4,286046997.2,N
1606418595.3,286046999.4,N
1606418615.1,286046998.6,N
1606418616.0,286046998.6,N
1606418635.8,286047001.0,N
1606418655.7,286046999.0,N
1606418675.5,286046999.2,N
1606418695.4,286046999.5,N
1606418715.2,286046996.9,N
1606418735.0,286046996.6,N
1606418735.9,286046996.6,N
1606418755.8,286046997.5,N
1606418775.6,286046997.6,N
1606418795.4,286046996.6,N
1606418815.3,286046997.1,N
1606418835.1,286046995.8,N
1606418855.8,286046995.6,N
1606418875.7,286046994.9,N
1606418895.5,286046996.6,N
1606418915.4,286046998.5,N
1606418935.2,286047000.8,N
1606418955.0,286046998.4,N
1606418955.9,286046998.4,N
1606418975.8,286046999.6,N
1606418995.6,286046997.9,N
1606419015.4,286046995.1,Y
1606419035.3,286047001.1,P
1606419055.1,286047000.7,N
1606419075.9,286046998.2,N
1606419095.7,286046998.3,N
1606419115.5,286047001.2,N
1606419135.4,286047000.8,N
1606419155.2,286046999.2,N
1606419175.0,286046997.6,N
1606419175.9,286046997.6,N
1606419195.8,286046996.9,N
1606419215.6,286046997.6,N
1606419235.5,286046995.4,Y
1606419255.3,286046996.7,P
1606419275.1,286046996.5,P
1606419295.9,286046998.1,N
1606419315.7,286046998.1,N
1606419335.6,286046996.5,Y
1606419355.4,286047002.3,P
1606419375.2,286047000.4,N
1606419395.1,286046998.3,N
1606419396.0,286046998.3,N
1606419415.8,286046998.3,N
1606419435.6,286047001.2,N
1606419455.5,286046999.1,N
1606419475.3,286046997.7,N
1606419495.1,286046997.5,N
1606419515.9,286046997.8,N
1606419535.7,286046995.8,N
1606419555.6,286046995.4,N
1606419575.4,286046994.9,N
1606419595.2,286046996.4,N
1606419615.1,286046993.4,Y
1606419616.0,286046993.4,P
1606419635.8,286046997.4,N
1606419655.6,286046995.0,N
1606419675.5,286046995.0,N
1606419695.3,286046997.5,N
1606419715.2,286046999.2,N
1606419735.9,286046999.0,N
1606419755.7,286047002.4,N
1606419775.6,286047000.6,N
1606419795.4,286046999.8,N
1606419815.2,286047002.5,N
1606419835.1,286047003.9,N
1606419836.0,286047003.9,N
1606419855.8,286047001.7,N
1606419875.7,286047002.4,N
1606419895.5,286047001.7,N
1606419915.3,286047004.4,N
1606419935.2,286047004.0,N
1606419955.0,286047002.2,N
1606419955.9,286047002.2,N
1606419975.7,286047002.5,N
1606419995.6,286047002.3,N
1606420015.4,286047002.6,N
1606420035.3,286047001.9,N
1606420055.1,286047001.6,N
1606420056.0,286047001.6,N
1606420075.8,286047002.5,N
1606420095.7,286047001.5,N
1606420115.5,286047003.8,N
1606420135.3,286047002.9,N
1606420155.2,286047001.7,N
1606420175.0,286047002.9,N
1606420175.9,286047002.9,N
1606420195.8,286047003.0,N
1606420215.6,286047003.3,N
1606420235.4,286047003.6,N
1606420255.3,286047002.9,N
1606420275.1,286047003.3,Y
1606420295.9,286047002.8,P
1606420315.7,286046999.9,N
1606420335.5,286047000.1,N
1606420355.4,286047004.3,Y
1606420375.2,286047002.3,P
1606420395.0,286047002.5,P
1606420395.9,286047002.5,P
1606420415.8,286047000.5,N
1606420435.6,286047000.1,N
1606420455.5,286047001.8,N
1606420475.3,286047001.3,N
1606420495.1,286047003.7,Y
1606420515.9,286047001.9,P
1606420535.7,286047001.5,P
1606420555.5,286047002.3,P
1606420575.4,286047002.1,Y
1606420595.2,286047000.8,P
1606420615.1,286047000.9,N
1606420616.0,286047000.9,N
1606420635.8,286046998.2,Y
1606420655.6,286046999.5,P
1606420675.5,286046999.4,N
1606420695.3,286046998.4,N
1606420715.1,286047000.7,N
1606420735.9,286047001.1,N
1606420755.7,286046999.9,N
1606420775.6,286047000.6,N
1606420795.4,286047000.9,N
